Weather History for KFBG - December, 2013

Change the Weather History Date:

Monday, December 16, 2013

  Actual Average Record
Temperature  
Mean Temperature 44 °F -  
Max Temperature 57 °F 53 °F 72 °F (2011)
Min Temperature 30 °F 34 °F 19 °F (2004)
Degree Days  
Heating Degree Days 22    
Moisture  
Dew Point 34 °F    
Average Humidity 77    
Maximum Humidity 99    
Minimum Humidity 39    
Precipitation  
Precipitation 0.00 in - - ()
Sea Level Pressure  
Sea Level Pressure 30.15 in    
Wind  
Wind Speed 3 mph (SW)    
Max Wind Speed 14 mph    
Max Gust Speed 17 mph    
Visibility 10 miles    
Events      
Averages and records for this station are not official NWS values.
T = Trace of Precipitation, MM = Missing Value Source: NWS Daily Summary

Daily Weather History Graph

Daily Weather History Graph

Search for Another Location

Airport or City:

Trip Planner

Search our weather history database for the weather conditions in past years. The results will help you decide how hot, cold, wet, or windy it might be!

Date:

Astronomy

Dec. 16, 2013 Rise Set
Actual Time 7:17 AM EST 5:05 PM EST
Civil Twilight 6:49 AM EST 5:33 PM EST
Nautical Twilight 6:17 AM EST 6:05 PM EST
Astronomical Twilight 5:46 AM EST 6:36 PM EST
Moon 4:52 PM EST (12/16) 6:26 AM EST (12/16)
Length of Visible Light 10h 44m
Length of Day
9h 48m
Full, 100% of the Moon is Illuminated
Dec 16
Full
Dec 17
Full
Dec 25
Last Quarter
Jan 1
New
Jan 7
First Quarter

Hourly Weather History & Observations

Time (EST) Temp. Windchill Dew Point Humidity Pressure Visibility Wind Dir Wind Speed Gust Speed Precip Events Conditions
12:58 AM 33.6 °F - 33.3 °F 99% 30.10 in 10.0 mi Calm Calm - N/A   Clear
1:58 AM 33.8 °F 29.6 °F 30.6 °F 88% 30.12 in 10.0 mi WNW 4.6 mph - N/A   Clear
2:58 AM 32.4 °F - 32.0 °F 99% 30.12 in 10.0 mi WSW 2.3 mph - N/A   Clear
3:58 AM 34.0 °F - 31.1 °F 89% 30.12 in 10.0 mi NW 1.2 mph - N/A   Clear
4:58 AM 31.3 °F - 30.7 °F 98% 30.14 in 10.0 mi Calm Calm - N/A   Clear
5:58 AM 31.6 °F - 31.3 °F 99% 30.14 in 10.0 mi Calm Calm - N/A   Clear
6:58 AM 30.2 °F - 30.0 °F 99% 30.16 in 10.0 mi South 2.3 mph - N/A   Clear
7:58 AM 30.9 °F - 30.6 °F 99% 30.18 in 10.0 mi Calm Calm - N/A   Clear
8:58 AM 37.0 °F - 32.9 °F 85% 30.19 in 10.0 mi WSW 2.3 mph - N/A   Clear
9:58 AM 46.0 °F 42.5 °F 32.9 °F 60% 30.22 in 10.0 mi Variable 6.9 mph - N/A   Clear
10:58 AM 50.0 °F - 31.1 °F 48% 30.19 in 10.0 mi WSW 5.8 mph - N/A   Clear
11:58 AM 53.6 °F - 32.2 °F 44% 30.17 in 10.0 mi West 12.7 mph - N/A   Clear
12:58 PM 55.8 °F - 32.5 °F 41% 30.14 in 10.0 mi SW 8.1 mph 16.1 mph N/A   Clear
1:58 PM 56.8 °F - 33.1 °F 41% 30.13 in 10.0 mi WSW 13.8 mph 17.3 mph N/A   Clear
2:58 PM 57.0 °F - 32.0 °F 39% 30.12 in 10.0 mi WSW 12.7 mph - N/A   Clear
3:58 PM 56.5 °F - 32.2 °F 40% 30.13 in 10.0 mi SW 8.1 mph - N/A   Clear
4:58 PM 54.0 °F - 33.8 °F 46% 30.14 in 10.0 mi SSW 4.6 mph - N/A   Clear
5:58 PM 47.1 °F - 36.5 °F 67% 30.16 in 10.0 mi Calm Calm - N/A   Clear
6:58 PM 44.6 °F - 39.2 °F 81% 30.17 in 10.0 mi South 2.3 mph - N/A   Clear
7:58 PM 40.8 °F - 40.1 °F 97% 30.18 in 10.0 mi Calm Calm - N/A   Clear
8:58 PM 38.7 °F - 38.5 °F 99% 30.18 in 10.0 mi Calm Calm - N/A   Clear
9:58 PM 38.1 °F - 37.8 °F 99% 30.17 in 10.0 mi Calm Calm - N/A   Clear
10:58 PM 36.9 °F - 36.5 °F 99% 30.17 in 10.0 mi Calm Calm - N/A   Clear
11:58 PM 41.7 °F 39.8 °F 39.0 °F 90% 30.15 in 10.0 mi SSW 3.5 mph - N/A   Clear